This is the latest recevied weather packets stored in our database for station/object NR6G-5. If no packets are shown the sender has not sent any weather packets the latest 10 day(s).
| Time | Temp. | Humidity | Pressure | Rain* | Wind** | Luminosity | Snow |
|---|---|---|---|---|---|---|---|
| 1777615956 | 17.22° C | 64% | 1011.2 hPa | 0 mm | - | - | - |
| 1777615354 | 17.78° C | 63% | 1011.2 hPa | 0 mm | - | - | - |
| 1777614755 | 18.33° C | 63% | 1011.1 hPa | 0 mm | - | - | - |
| 1777614458 | 18.33° C | 62% | 1011.1 hPa | 0 mm | - | - | - |
| 1777614155 | 19.44° C | 60% | 1011 hPa | 0 mm | - | - | - |
| 1777613854 | 20.56° C | 55% | 1011 hPa | 0 mm | - | - | - |
| 1777613555 | 20.56° C | 53% | 1010.9 hPa | 0 mm | - | - | - |
| 1777613255 | 20.56° C | 55% | 1010.9 hPa | 0 mm | - | - | - |
| 1777612888 | 21.11° C | 52% | 1010.8 hPa | 0 mm | - | - | - |
| 1777612588 | 21.67° C | 51% | 1010.7 hPa | 0 mm | - | - | - |
| 1777611988 | 21.67° C | 49% | 1010.6 hPa | 0 mm | - | - | - |
| 1777611088 | 21.67° C | 51% | 1010.4 hPa | 0 mm | - | - | - |
| 1777610486 | 21.67° C | 47% | 1010.4 hPa | 0 mm | - | - | - |
| 1777609886 | 21.67° C | 50% | 1010.4 hPa | 0 mm | - | - | - |
| 1777609286 | 22.22° C | 49% | 1010.3 hPa | 0 mm | - | - | - |
| 1777608986 | 22.22° C | 46% | 1010.3 hPa | 0 mm | - | - | - |
| 1777608686 | 22.78° C | 47% | 1010.2 hPa | 0 mm | - | - | - |
| 1777608386 | 22.22° C | 47% | 1010.1 hPa | 0 mm | - | - | - |
| 1777608086 | 22.78° C | 48% | 1010 hPa | 0 mm | - | - | - |
| 1777607785 | 22.78° C | 48% | 1010 hPa | 0 mm | - | - | - |
| 1777607487 | 23.33° C | 49% | 1009.9 hPa | 0 mm | - | - | - |
| 1777607185 | 23.33° C | 48% | 1009.8 hPa | 0 mm | - | - | - |
| 1777606887 | 23.33° C | 47% | 1009.8 hPa | 0 mm | - | - | - |
| 1777606588 | 23.33° C | 47% | 1009.7 hPa | 0 mm | - | - | - |
| 1777606287 | 23.33° C | 47% | 1009.7 hPa | 0 mm | - | - | - |
* Rain latest hour (hover to see other rain measurements)
** Current wind speed in m/s (hover to see current wind gust speed)